Time,TemperatureF,DewpointF,PressureIn,WindDirection,WindDirectionDegrees,WindSpeedMPH,WindSpeedGustMPH,Humidity,HourlyPrecipIn,Conditions,Clouds,dailyrainin,SoftwareType,DateUTC
2013-04-16 00:02:00,64.0,57.0,29.80,SE,128,0.0,0.0,77,0.00,,,0.00,,2013-04-16 05:02:00,
2013-04-16 00:12:00,64.0,57.0,29.80,SE,128,0.0,0.0,77,0.00,,,0.00,,2013-04-16 05:12:00,
2013-04-16 00:22:00,63.0,56.0,29.80,SE,128,0.0,0.0,78,0.00,,,0.00,,2013-04-16 05:22:00,
2013-04-16 00:32:00,63.0,56.0,29.79,SE,128,0.0,0.0,79,0.00,,,0.00,,2013-04-16 05:32:00,
2013-04-16 00:42:00,63.0,56.0,29.79,SE,128,0.0,0.0,79,0.00,,,0.00,,2013-04-16 05:42:00,
2013-04-16 00:52:00,63.0,56.0,29.79,SE,128,0.0,0.0,79,0.00,,,0.00,,2013-04-16 05:52:00,
2013-04-16 01:02:00,63.0,57.0,29.81,SE,128,0.0,3.0,81,0.00,,,0.00,,2013-04-16 06:02:00,
2013-04-16 01:12:00,63.0,57.0,29.81,SE,128,0.0,3.0,81,0.00,,,0.00,,2013-04-16 06:12:00,
2013-04-16 01:22:00,63.0,57.0,29.81,SE,129,0.0,0.0,81,0.00,,,0.00,,2013-04-16 06:22:00,
2013-04-16 01:32:00,63.0,56.0,29.80,SE,132,0.0,0.0,79,0.00,,,0.00,,2013-04-16 06:32:00,
2013-04-16 01:42:00,63.0,56.0,29.80,SE,132,0.0,0.0,79,0.00,,,0.00,,2013-04-16 06:42:00,
2013-04-16 01:52:00,64.0,57.0,29.80,SSE,166,0.0,0.0,78,0.00,,,0.00,,2013-04-16 06:52:00,
2013-04-16 02:02:00,64.0,57.0,29.80,South,172,1.0,3.0,77,0.00,,,0.00,,2013-04-16 07:02:00,
2013-04-16 02:12:00,64.0,57.0,29.80,South,172,1.0,3.0,77,0.00,,,0.00,,2013-04-16 07:12:00,
2013-04-16 02:22:00,64.0,57.0,29.80,South,172,1.0,1.0,77,0.00,,,0.00,,2013-04-16 07:22:00,
2013-04-16 02:32:00,64.0,56.0,29.81,South,172,2.0,2.0,76,0.00,,,0.00,,2013-04-16 07:32:00,
2013-04-16 02:42:00,64.0,56.0,29.81,South,172,2.0,2.0,76,0.00,,,0.00,,2013-04-16 07:42:00,
2013-04-16 02:53:00,64.0,56.0,29.81,SE,130,0.0,1.0,76,0.00,,,0.00,,2013-04-16 07:53:00,
2013-04-16 03:02:00,64.0,57.0,29.82,SSE,150,3.0,3.0,77,0.00,,,0.00,,2013-04-16 08:02:00,
2013-04-16 03:12:00,64.0,57.0,29.82,SSE,150,3.0,3.0,77,0.00,,,0.00,,2013-04-16 08:12:00,
2013-04-16 03:22:00,64.0,57.0,29.82,SE,133,1.0,2.0,78,0.00,,,0.00,,2013-04-16 08:22:00,
2013-04-16 03:32:00,64.0,57.0,29.83,South,169,0.0,2.0,78,0.00,,,0.00,,2013-04-16 08:32:00,
2013-04-16 03:42:00,64.0,57.0,29.83,South,169,0.0,2.0,78,0.00,,,0.00,,2013-04-16 08:42:00,
2013-04-16 03:52:00,64.0,57.0,29.83,South,181,3.0,3.0,79,0.00,,,0.00,,2013-04-16 08:52:00,
2013-04-16 04:02:00,64.0,57.0,29.85,SSE,158,1.0,3.0,79,0.00,,,0.00,,2013-04-16 09:02:00,
2013-04-16 04:12:00,64.0,57.0,29.85,SSE,158,1.0,3.0,79,0.00,,,0.00,,2013-04-16 09:12:00,
2013-04-16 04:22:00,64.0,58.0,29.85,SE,132,0.0,1.0,80,0.00,,,0.00,,2013-04-16 09:22:00,
2013-04-16 04:33:00,65.0,58.0,29.86,South,171,1.0,1.0,79,0.00,,,0.00,,2013-04-16 09:33:00,
2013-04-16 04:42:00,65.0,58.0,29.86,South,171,1.0,1.0,79,0.00,,,0.00,,2013-04-16 09:42:00,
2013-04-16 04:52:00,65.0,58.0,29.86,SSE,150,2.0,3.0,79,0.00,,,0.00,,2013-04-16 09:52:00,
2013-04-16 05:03:00,65.0,58.0,29.86,SSE,159,0.0,1.0,79,0.00,,,0.00,,2013-04-16 10:03:00,
2013-04-16 05:13:00,65.0,58.0,29.86,SSE,159,0.0,1.0,79,0.00,,,0.00,,2013-04-16 10:13:00,
2013-04-16 05:22:00,65.0,59.0,29.86,SSE,159,0.0,0.0,80,0.00,,,0.00,,2013-04-16 10:22:00,
2013-04-16 05:33:00,65.0,59.0,29.90,SSE,159,0.0,0.0,80,0.00,,,0.00,,2013-04-16 10:33:00,
2013-04-16 05:42:00,65.0,59.0,29.90,SSE,159,0.0,0.0,80,0.00,,,0.00,,2013-04-16 10:42:00,
2013-04-16 05:52:00,65.0,59.0,29.90,SSE,159,0.0,0.0,81,0.00,,,0.00,,2013-04-16 10:52:00,
2013-04-16 06:02:00,65.0,59.0,29.91,SSE,159,0.0,0.0,81,0.00,,,0.00,,2013-04-16 11:02:00,
2013-04-16 06:12:00,65.0,59.0,29.91,SSE,159,0.0,0.0,81,0.00,,,0.00,,2013-04-16 11:12:00,
2013-04-16 06:22:00,65.0,59.0,29.91,NNW,330,3.0,4.0,81,0.00,,,0.00,,2013-04-16 11:22:00,
2013-04-16 06:32:00,62.0,55.0,29.96,NW,320,5.0,11.0,78,0.00,,,0.00,,2013-04-16 11:32:00,
2013-04-16 06:42:00,62.0,55.0,29.96,NW,320,5.0,11.0,78,0.00,,,0.00,,2013-04-16 11:42:00,
2013-04-16 06:52:00,58.0,52.0,29.96,NW,325,12.0,13.0,79,0.00,,,0.00,,2013-04-16 11:52:00,
2013-04-16 07:02:00,56.0,51.0,29.99,North,355,5.0,6.0,83,0.00,,,0.00,,2013-04-16 12:02:00,
2013-04-16 07:12:00,56.0,51.0,29.99,North,355,5.0,6.0,83,0.00,,,0.00,,2013-04-16 12:12:00,
2013-04-16 07:22:00,55.0,50.0,29.99,NNE,23,3.0,3.0,84,0.00,,,0.00,,2013-04-16 12:22:00,
2013-04-16 07:32:00,55.0,51.0,30.00,NE,50,1.0,2.0,86,0.00,,,0.00,,2013-04-16 12:32:00,
2013-04-16 07:42:00,55.0,51.0,30.00,NE,50,1.0,2.0,86,0.00,,,0.00,,2013-04-16 12:42:00,
2013-04-16 07:52:00,55.0,51.0,30.00,NE,50,0.0,1.0,86,0.00,,,0.00,,2013-04-16 12:52:00,
2013-04-16 08:02:00,56.0,52.0,30.00,NE,50,0.0,0.0,86,0.00,,,0.00,,2013-04-16 13:02:00,
2013-04-16 08:12:00,56.0,52.0,30.00,NE,50,0.0,0.0,86,0.00,,,0.00,,2013-04-16 13:12:00,
2013-04-16 08:22:00,56.0,52.0,30.00,ENE,62,0.0,2.0,87,0.00,,,0.00,,2013-04-16 13:22:00,
2013-04-16 08:32:00,57.0,53.0,30.00,SE,127,1.0,1.0,87,0.00,,,0.00,,2013-04-16 13:32:00,
2013-04-16 08:42:00,57.0,53.0,30.00,SE,127,1.0,1.0,87,0.00,,,0.00,,2013-04-16 13:42:00,
2013-04-16 08:52:00,58.0,54.0,30.00,SE,127,0.0,1.0,87,0.00,,,0.00,,2013-04-16 13:52:00,
2013-04-16 09:02:00,58.0,54.0,29.98,SE,127,0.0,2.0,87,0.00,,,0.00,,2013-04-16 14:02:00,
2013-04-16 09:12:00,58.0,54.0,29.98,SE,127,0.0,2.0,87,0.00,,,0.00,,2013-04-16 14:12:00,
2013-04-16 09:22:00,59.0,55.0,29.98,SE,127,0.0,2.0,86,0.00,,,0.00,,2013-04-16 14:22:00,
2013-04-16 09:32:00,60.0,56.0,29.99,SE,127,0.0,1.0,86,0.00,,,0.00,,2013-04-16 14:32:00,
2013-04-16 09:42:00,60.0,56.0,29.99,SE,127,0.0,1.0,86,0.00,,,0.00,,2013-04-16 14:42:00,
2013-04-16 09:52:00,61.0,57.0,29.99,SE,127,0.0,0.0,86,0.00,,,0.00,,2013-04-16 14:52:00,
2013-04-16 10:02:00,62.0,57.0,29.99,SE,127,0.0,0.0,85,0.00,,,0.00,,2013-04-16 15:02:00,
2013-04-16 10:12:00,62.0,57.0,29.99,SE,127,0.0,0.0,85,0.00,,,0.00,,2013-04-16 15:12:00,
2013-04-16 10:22:00,62.0,57.0,29.99,SE,127,0.0,0.0,85,0.00,,,0.00,,2013-04-16 15:22:00,
2013-04-16 10:33:00,64.0,59.0,29.99,SE,128,1.0,2.0,83,0.00,,,0.00,,2013-04-16 15:33:00,
2013-04-16 10:43:00,64.0,59.0,29.99,SE,128,1.0,2.0,83,0.00,,,0.00,,2013-04-16 15:43:00,
2013-04-16 10:53:00,64.0,59.0,29.99,SE,128,0.0,2.0,83,0.00,,,0.00,,2013-04-16 15:53:00,
2013-04-16 11:03:00,65.0,59.0,29.99,SE,128,0.0,2.0,82,0.00,,,0.00,,2013-04-16 16:03:00,
2013-04-16 11:13:00,65.0,59.0,29.99,SE,128,0.0,2.0,82,0.00,,,0.00,,2013-04-16 16:13:00,
2013-04-16 11:23:00,65.0,59.0,29.99,SE,128,1.0,2.0,82,0.00,,,0.00,,2013-04-16 16:23:00,
2013-04-16 11:32:00,66.0,60.0,29.99,SE,128,0.0,2.0,81,0.00,,,0.00,,2013-04-16 16:32:00,
2013-04-16 11:42:00,66.0,60.0,29.99,SE,128,0.0,2.0,81,0.00,,,0.00,,2013-04-16 16:42:00,
2013-04-16 11:52:00,66.0,60.0,29.99,SE,128,1.0,2.0,81,0.00,,,0.00,,2013-04-16 16:52:00,
2013-04-16 12:02:00,66.0,60.0,29.99,NW,311,2.0,3.0,80,0.00,,,0.00,,2013-04-16 17:02:00,
2013-04-16 12:12:00,66.0,60.0,29.99,NW,311,2.0,3.0,80,0.00,,,0.00,,2013-04-16 17:12:00,
2013-04-16 12:22:00,66.0,60.0,29.99,NW,307,2.0,3.0,80,0.00,,,0.00,,2013-04-16 17:22:00,
2013-04-16 12:32:00,66.0,60.0,29.98,North,355,0.0,3.0,80,0.00,,,0.00,,2013-04-16 17:32:00,
2013-04-16 12:43:00,66.0,60.0,29.98,North,355,0.0,3.0,80,0.00,,,0.00,,2013-04-16 17:43:00,
2013-04-16 12:52:00,67.0,61.0,29.98,WNW,286,0.0,3.0,80,0.00,,,0.00,,2013-04-16 17:52:00,
2013-04-16 13:02:00,69.0,61.0,29.97,WNW,297,0.0,1.0,76,0.00,,,0.00,,2013-04-16 18:02:00,
2013-04-16 13:12:00,70.0,62.0,29.97,WNW,298,0.0,0.0,75,0.00,,,0.00,,2013-04-16 18:12:00,
2013-04-16 13:22:00,70.0,62.0,29.97,WNW,298,0.0,0.0,75,0.00,,,0.00,,2013-04-16 18:22:00,
2013-04-16 13:32:00,71.0,63.0,29.96,WNW,298,1.0,1.0,75,0.00,,,0.00,,2013-04-16 18:32:00,
2013-04-16 13:42:00,71.0,63.0,29.96,WNW,298,1.0,1.0,75,0.00,,,0.00,,2013-04-16 18:42:00,
2013-04-16 13:52:00,74.0,64.0,29.96,North,360,2.0,2.0,72,0.00,,,0.00,,2013-04-16 18:52:00,
2013-04-16 14:02:00,72.0,63.0,29.95,NNE,29,5.0,5.0,73,0.00,,,0.00,,2013-04-16 19:02:00,
2013-04-16 14:12:00,72.0,63.0,29.95,NNE,29,5.0,5.0,73,0.00,,,0.00,,2013-04-16 19:12:00,
2013-04-16 14:22:00,73.0,63.0,29.95,North,5,3.0,4.0,71,0.00,,,0.00,,2013-04-16 19:22:00,
2013-04-16 14:32:00,71.0,62.0,29.96,NNE,15,5.0,8.0,74,0.00,,,0.00,,2013-04-16 19:32:00,
2013-04-16 14:42:00,71.0,62.0,29.96,NNE,15,5.0,8.0,74,0.00,,,0.00,,2013-04-16 19:42:00,
2013-04-16 14:52:00,70.0,62.0,29.96,NNW,344,5.0,9.0,75,0.00,,,0.00,,2013-04-16 19:52:00,
2013-04-16 15:02:00,69.0,60.0,29.96,North,5,5.0,13.0,72,0.00,,,0.00,,2013-04-16 20:02:00,
2013-04-16 15:12:00,69.0,60.0,29.96,North,5,5.0,13.0,72,0.00,,,0.00,,2013-04-16 20:12:00,
2013-04-16 15:22:00,68.0,59.0,29.96,NNW,343,12.0,14.0,72,0.00,,,0.00,,2013-04-16 20:22:00,
2013-04-16 15:32:00,66.0,56.0,29.97,NW,325,6.0,10.0,71,0.00,,,0.00,,2013-04-16 20:32:00,
2013-04-16 15:42:00,66.0,56.0,29.97,NW,325,6.0,10.0,71,0.00,,,0.00,,2013-04-16 20:42:00,
2013-04-16 15:52:00,65.0,56.0,29.97,NNW,348,6.0,12.0,74,0.00,,,0.00,,2013-04-16 20:52:00,
2013-04-16 16:02:00,64.0,56.0,29.98,North,355,6.0,10.0,75,0.00,,,0.00,,2013-04-16 21:02:00,
2013-04-16 16:12:00,64.0,56.0,29.98,North,355,6.0,10.0,75,0.00,,,0.00,,2013-04-16 21:12:00,
2013-04-16 16:22:00,64.0,56.0,29.98,NNE,32,6.0,6.0,74,0.00,,,0.00,,2013-04-16 21:22:00,
2013-04-16 16:32:00,62.0,55.0,29.98,North,5,5.0,5.0,79,0.00,,,0.00,,2013-04-16 21:32:00,
2013-04-16 16:43:00,62.0,55.0,29.98,North,5,5.0,5.0,79,0.00,,,0.00,,2013-04-16 21:43:00,
2013-04-16 16:52:00,62.0,56.0,29.98,North,355,5.0,5.0,80,0.00,,,0.00,,2013-04-16 21:52:00,
2013-04-16 17:02:00,62.0,56.0,29.98,North,355,5.0,5.0,80,0.00,,,0.00,,2013-04-16 22:02:00,
2013-04-16 17:13:00,62.0,56.0,29.98,North,355,5.0,5.0,80,0.00,,,0.00,,2013-04-16 22:13:00,
2013-04-16 17:22:00,62.0,56.0,29.98,North,355,5.0,5.0,80,0.00,,,0.00,,2013-04-16 22:22:00,
2013-04-16 22:53:00,57.0,55.0,30.02,NE,36,2.0,3.0,92,0.00,,,0.00,,2013-04-17 03:53:00,
2013-04-16 23:03:00,57.0,55.0,30.04,North,355,3.0,3.0,92,0.00,,,0.00,,2013-04-17 04:03:00,
2013-04-16 23:13:00,57.0,55.0,30.04,North,355,3.0,3.0,92,0.00,,,0.00,,2013-04-17 04:13:00,
2013-04-16 23:22:00,57.0,55.0,30.04,North,355,3.0,3.0,92,0.00,,,0.00,,2013-04-17 04:22:00,
2013-04-16 23:33:00,56.0,54.0,30.04,North,10,2.0,4.0,93,0.00,,,0.00,,2013-04-17 04:33:00,
2013-04-16 23:42:00,56.0,54.0,30.04,North,10,2.0,4.0,93,0.00,,,0.00,,2013-04-17 04:42:00,
2013-04-16 23:52:00,56.0,54.0,30.04,NNW,340,3.0,3.0,93,0.00,,,0.00,,2013-04-17 04:52:00,